sat.trackr.live / text

‹ back to catalog

INMARSAT 3-F3

NORAD 24674 · 1996-070A

PAYLOAD ACTIVE UNKNOWN

§ Identity

Operator
Country
IM
Launch date
1996-12-18
Launch site
AFETR
Launch vehicle
Mass (kg)
RCS (m²)
28.18

Purposes: comms

External: N2YO · Heavens-Above · Gunter

§ Orbital elements

Epoch: 2026-09-18T06:31:07.631904Z

Period
1,440.12 min
Inclination
10.5160°
Eccentricity
0.0006072
Mean motion
0.99991342 rev/d
Perigee alt
35,839.7 km
Apogee alt
35,891.0 km
Semi-major
42,243.5 km
B*
0.0000e+0
RAAN
48.7296°
Arg perigee
155.1374°
Mean anomaly
200.7763°
Rev number
10,883

§ Raw data

INMARSAT 3-F31 24674U 96070A   26261.27161611 -.00000290  00000+0  00000+0 0  99972 24674  10.5160  48.7296 0006072 155.1374 200.7763  0.99991342108836

JSON: /api/v1/satellites/24674 · /tle

For live sub-satellite position, see the globe view (requires WebGL).

§ Visibility from observer

Set your observer location to see the next 7 days of passes ≥ 10°. The values pass through the URL so the page stays shareable.

No JS? Fill the form by hand. The geolocation button needs JavaScript.